Location: Observatory
(52.1446°N, 0.4624°W)
Time: 00:22:21
(UTC+00:00)

Amateur Radio Satellites - All Passes

Search period start: 13 December 2017 23:52
Search period end: 14 December 2017 23:52
Location: Observatory, 52.1446°N, 0.4624°W

Satellite Date Start Highest point End Downlink Frequencies (MHz)
Time Altitude Azimuth
PRISM 13 Dec 23:53:35 23:57:10 29° 296° (WNW) 00:00:43 437.425
BEESAT 3 14 Dec 00:01:26 00:03:48 15° 348° (NNW) 00:06:08 437.485
POLYITAN 1 14 Dec 00:06:28 00:10:41 64° 103° (ESE) 00:14:52 437.675
AIST 2D 14 Dec 00:09:28 00:12:44 34° 292° (WNW) 00:15:59 435.315
VELOX 1 14 Dec 00:13:36 00:17:58 53° 259° (W) 00:22:21 145.980
ESTCUBE 1 14 Dec 00:14:32 00:16:25 12° 275° (W) 00:18:19 437.505/2401.250
MOZHAYETS 4 14 Dec 00:25:25 00:27:23 13° 52° (NE) 00:29:20
QB50P2 14 Dec 00:32:08 00:36:20 67° 288° (WNW) 00:40:31 145.880/145.840
PCSat 14 Dec 00:32:33 00:36:22 19° 14° (NNE) 00:40:10 145.827
BEESAT 14 Dec 00:35:42 00:37:52 13° 50° (NE) 00:40:01 436.000
BEESAT 2 14 Dec 00:37:53 00:40:32 17° 344° (NNW) 00:43:12 435.950
DUCHIFAT 1 14 Dec 00:39:12 00:43:24 79° 285° (WNW) 00:47:35 145.980
UKube-1 14 Dec 00:59:44 01:04:03 77° 72° (ENE) 01:08:24 .
ITUPSAT 1 14 Dec 01:01:40 01:05:03 20° 56° (NE) 01:08:27 437.325
NANOSAT C BR1 14 Dec 01:05:10 01:09:07 40° 293° (WNW) 01:13:03 145.865
SPROUT 14 Dec 01:06:50 01:08:34 12° 274° (W) 01:10:19 437.525
Oscar 19 14 Dec 01:08:35 01:13:23 36° 96° (E) 01:18:09 437.125/150
50 SAT 14 Dec 01:12:44 01:15:45 39° 261° (W) 01:18:46 437.505
DX 1 14 Dec 01:13:05 01:17:22 54° 259° (WSW) 01:21:42 434.975-435.025
EO-79 14 Dec 01:19:57 01:23:33 28° 297° (WNW) 01:27:08 145.935-145.965
SO-50 14 Dec 01:23:20 01:26:19 17° 247° (WSW) 01:29:20 436.795
BUGSAT 1 14 Dec 01:24:25 01:28:28 81° 106° (ESE) 01:32:31 437.445
AO-85 14 Dec 01:31:45 01:34:45 19° 345° (NNW) 01:37:56 145.980
RS-15 14 Dec 01:32:36 01:41:53 29° 258° (WSW) 01:50:49 29.354- 29.394
AO-91 14 Dec 01:36:10 01:39:44 54° 101° (E) 01:43:05 145.960
BEESAT 3 14 Dec 01:40:28 01:42:49 15° 12° (NNE) 01:45:09 437.485
Gurwin Techsat 1B 14 Dec 01:41:02 01:46:13 49° 99° (E) 01:51:22 435.225
POLYITAN 1 14 Dec 01:43:06 01:46:04 19° 301° (WNW) 01:49:01 437.675
CUBESAT XI-V 14 Dec 01:44:12 01:47:20 18° 56° (NE) 01:50:30 437.345
MOZHAYETS 4 14 Dec 01:59:11 02:03:42 68° 72° (ENE) 02:08:17
BEESAT 14 Dec 02:10:04 02:14:46 66° 71° (ENE) 02:19:30 436.000
QB50P2 14 Dec 02:10:06 02:11:19 11° 308° (NW) 02:12:34 145.880/145.840
YUBILEINY 14 Dec 02:12:47 02:20:41 39° 84° (E) 02:28:37 435.215
PCSat 14 Dec 02:16:04 02:21:13 41° 39° (NE) 02:26:20 145.827
DUCHIFAT 1 14 Dec 02:16:32 02:18:22 13° 306° (NW) 02:20:12 145.980
BEESAT 2 14 Dec 02:17:27 02:19:46 14° 8° (N) 02:22:03 435.950
ITAMSAT 1 14 Dec 02:20:33 02:22:04 11° 83° (E) 02:23:34 435.822/435.867
KKS-1 14 Dec 02:24:00 02:25:10 11° 50° (NE) 02:26:21 437.445
M-CUBED/EXP-1 PRIME 14 Dec 02:36:49 02:39:09 14° 91° (E) 02:41:26 437.505
ITUPSAT 1 14 Dec 02:37:37 02:42:22 76° 255° (WSW) 02:47:10 437.325
UKube-1 14 Dec 02:38:09 02:40:37 15° 271° (W) 02:43:06 .
Oscar 19 14 Dec 02:47:54 02:52:46 41° 296° (WNW) 02:57:38 437.125/150
AO-7 14 Dec 02:55:47 03:03:28 38° 96° (E) 03:11:06 .
BUGSAT 1 14 Dec 03:01:03 03:03:17 15° 303° (WNW) 03:05:31 437.445
STARS 14 Dec 03:09:20 03:11:05 12° 52° (NE) 03:12:52 437.465
AO-91 14 Dec 03:13:40 03:15:49 15° 302° (WNW) 03:17:52 145.960
AO-85 14 Dec 03:13:45 03:16:44 17° 10° (N) 03:19:52 145.980
BEESAT 3 14 Dec 03:17:46 03:21:26 34° 35° (NE) 03:25:03 437.485
CUBESAT XI-V 14 Dec 03:19:27 03:24:08 82° 255° (WSW) 03:28:53 437.345
Gurwin Techsat 1B 14 Dec 03:21:19 03:26:00 32° 299° (WNW) 03:30:40 435.225
MOZHAYETS 4 14 Dec 03:38:15 03:41:21 18° 271° (W) 03:44:28
BEESAT 14 Dec 03:49:33 03:53:00 20° 270° (W) 03:56:29 436.000
DOVE 4 14 Dec 03:52:50 03:55:38 16° 86° (E) 03:58:21 437.250
BEESAT 2 14 Dec 03:55:06 03:58:41 29° 32° (NNE) 04:02:14 435.950
KKS-1 14 Dec 03:56:27 04:00:51 58° 69° (ENE) 04:05:14 437.445
ITAMSAT 1 14 Dec 03:57:21 04:02:33 67° 103° (ESE) 04:07:42 435.822/435.867
PCSat 14 Dec 03:59:32 04:04:48 52° 240° (WSW) 04:10:01 145.827
YUBILEINY 14 Dec 04:08:23 04:17:07 63° 287° (WNW) 04:25:56 435.215
M-CUBED/EXP-1 PRIME 14 Dec 04:09:33 04:14:13 88° 114° (ESE) 04:18:37 437.505
ITUPSAT 1 14 Dec 04:19:20 04:21:02 12° 275° (W) 04:22:46 437.325
STARS 14 Dec 04:42:17 04:46:39 69° 72° (ENE) 04:51:02 437.465
AO-7 14 Dec 04:48:28 04:56:45 67° 298° (WNW) 05:05:01 .
AO-85 14 Dec 04:54:09 04:58:21 35° 34° (NNE) 05:02:51 145.980
BEESAT 3 14 Dec 04:55:17 04:59:05 44° 236° (SW) 05:02:47 437.485
STRAND 1 14 Dec 04:56:48 05:00:30 21° 55° (NE) 05:04:12 437.568
CUBESAT XI-V 14 Dec 05:00:19 05:02:18 12° 276° (W) 05:04:17 437.345
XW-2C 14 Dec 05:07:45 05:10:02 15° 89° (E) 05:12:19 145.795 - 145.815
CUTE-I 14 Dec 05:16:50 05:20:35 19° 88° (E) 05:24:19 437.470
FO-29 14 Dec 05:29:03 05:35:04 25° 49° (NE) 05:40:59 435.910
DOVE 4 14 Dec 05:29:19 05:33:59 74° 286° (WNW) 05:38:20 437.250
BEESAT 2 14 Dec 05:32:41 05:36:42 61° 232° (SW) 05:40:38 435.950
KKS-1 14 Dec 05:34:26 05:37:45 20° 269° (W) 05:41:05 437.445
ITAMSAT 1 14 Dec 05:37:29 05:41:37 25° 303° (WNW) 05:45:44 435.822/435.867
LilacSat-2 14 Dec 05:42:02 05:45:37 34° 96° (E) 05:49:11 437.200
M-CUBED/EXP-1 PRIME 14 Dec 05:44:48 05:47:58 19° 311° (NW) 05:51:02 437.505
XW-2D 14 Dec 05:57:35 06:01:20 47° 99° (E) 06:05:04 145.860 - 145.880
NUDT-PHONESAT 14 Dec 06:06:15 06:09:50 39° 98° (E) 06:13:22 437.300
KAITUO 1B 14 Dec 06:08:17 06:11:57 44° 99° (E) 06:15:35 145.475/437.950
YUBILEINY 14 Dec 06:10:07 06:16:08 19° 314° (NW) 06:22:10 435.215
XW-2B 14 Dec 06:13:23 06:17:15 67° 102° (ESE) 06:21:04 145.730 - 145.750
STARS 14 Dec 06:20:37 06:23:28 17° 270° (W) 06:26:20 437.465
HO-68 14 Dec 06:24:34 06:31:00 34° 94° (E) 06:37:24 435.675
XW-2F 14 Dec 06:26:18 06:30:10 87° 105° (ESE) 06:34:00 145.980 - 146.000
SEEDS 14 Dec 06:32:17 06:35:32 21° 91° (E) 06:38:47 437.485
STRAND 1 14 Dec 06:34:00 06:39:08 81° 255° (WSW) 06:44:17 437.568
AO-85 14 Dec 06:34:25 06:39:02 60° 233° (SW) 06:43:59 145.980
NO-84 14 Dec 06:38:20 06:39:59 14° 132° (SE) 06:41:41 435.350 FM
XW-2C 14 Dec 06:40:46 06:44:36 62° 288° (WNW) 06:48:25 145.795 - 145.815
AO-7 14 Dec 06:41:58 06:48:10 24° 322° (NW) 06:54:23 .
CUTE 1.7 + AOD 2 14 Dec 06:52:55 06:57:07 49° 99° (E) 07:01:17 437.475
AAUSAT CUBESAT 2 14 Dec 06:54:19 06:56:59 16° 88° (E) 06:59:39 437.432
XW-2A 14 Dec 06:55:51 06:57:40 14° 90° (E) 06:59:28 145.665 - 145.685
CUTE-I 14 Dec 06:55:55 07:01:17 79° 288° (WNW) 07:06:36 437.470
AO-73 14 Dec 07:00:16 07:02:04 12° 86° (E) 07:03:51 145.935
DOVE 4 14 Dec 07:08:36 07:10:48 13° 308° (NW) 07:12:58 437.250
FO-29 14 Dec 07:11:14 07:19:02 77° 71° (ENE) 07:26:50 435.910
LilacSat-2 14 Dec 07:16:29 07:19:47 27° 295° (WNW) 07:23:06 437.200
CUBEBUG 2 14 Dec 07:31:46 07:35:59 73° 102° (ESE) 07:40:18 437.445
XW-2D 14 Dec 07:32:20 07:35:14 20° 298° (WNW) 07:38:07 145.860 - 145.880
UWE-3 14 Dec 07:33:15 07:37:22 45° 99° (E) 07:41:34 435.000/436.395/437.385
NUDT-PHONESAT 14 Dec 07:40:29 07:43:28 23° 297° (WNW) 07:46:27 437.300
KAITUO 1B 14 Dec 07:42:46 07:45:41 21° 298° (WNW) 07:48:35 145.475/437.950
XW-2B 14 Dec 07:48:36 07:50:58 16° 301° (WNW) 07:53:19 145.730 - 145.750
ZACube-1 14 Dec 08:00:09 08:04:20 47° 99° (E) 08:08:36 437.345
XW-2F 14 Dec 08:01:55 08:03:41 13° 303° (WNW) 08:05:26 145.980 - 146.000
O/OREOS (USA 219) 14 Dec 08:04:31 08:08:24 27° 106° (ESE) 08:12:16 437.305
SEEDS 14 Dec 08:07:21 08:11:31 51° 290° (WNW) 08:15:37 437.485
HO-68 14 Dec 08:12:06 08:19:11 63° 295° (WNW) 08:26:12 435.675
NO-84 14 Dec 08:13:27 08:16:36 67° 152° (SSE) 08:20:03 435.350 FM
TIGRISAT 14 Dec 08:15:47 08:19:48 41° 68° (ENE) 08:23:49 435.000
STRAND 1 14 Dec 08:16:34 08:19:09 14° 275° (W) 08:21:45 437.568
AO-85 14 Dec 08:17:12 08:18:40 11° 251° (WSW) 08:20:10 145.980
UNISAT 6 14 Dec 08:18:43 08:22:51 47° 69° (ENE) 08:26:57 437.425
Oscar 11 14 Dec 08:21:19 08:25:33 46° 99° (E) 08:29:44 .
XW-2A 14 Dec 08:27:18 08:30:41 54° 288° (WNW) 08:34:02 145.665 - 145.685
AAUSAT CUBESAT 2 14 Dec 08:28:43 08:32:52 65° 288° (WNW) 08:37:00 437.432
CUTE 1.7 + AOD 2 14 Dec 08:29:15 08:32:41 24° 298° (WNW) 08:36:07 437.475
AO-73 14 Dec 08:34:35 08:38:55 88° 99° (E) 08:43:21 145.935
AO-7 14 Dec 08:35:26 08:38:01 12° 348° (NNW) 08:40:35 .
CUTE-I 14 Dec 08:37:08 08:40:34 18° 309° (NW) 08:43:58 437.470
EO-88 14 Dec 08:55:17 08:56:24 11° 87° (E) 08:57:29 145.990 - 145.960
FO-29 14 Dec 08:57:57 09:04:41 31° 271° (W) 09:11:29 435.910
CUBEBUG 2 14 Dec 09:09:26 09:12:10 17° 302° (WNW) 09:14:55 437.445
UWE-3 14 Dec 09:10:08 09:13:38 25° 297° (WNW) 09:17:11 435.000/436.395/437.385
EO-79 14 Dec 09:10:10 09:10:30 10° 51° (NE) 09:10:50 145.935-145.965
PRISM 14 Dec 09:12:09 09:16:13 54° 70° (ENE) 09:20:19 437.425
AIST 2D 14 Dec 09:16:09 09:18:48 20° 63° (ENE) 09:21:29 435.315
POLYITAN 1 14 Dec 09:30:36 09:33:00 15° 56° (NE) 09:35:25 437.675
ZACube-1 14 Dec 09:36:54 09:40:25 25° 297° (WNW) 09:43:59 437.345
DELFI C3 14 Dec 09:37:40 09:41:37 61° 101° (E) 09:45:30 145.870
O/OREOS (USA 219) 14 Dec 09:43:10 09:47:37 47° 306° (NW) 09:52:03 437.305
NO-84 14 Dec 09:50:40 09:53:58 53° 355° (N) 09:57:33 435.350 FM
TIGRISAT 14 Dec 09:53:05 09:56:40 26° 267° (W) 10:00:14 435.000
QB50P2 14 Dec 09:54:55 09:58:23 26° 62° (ENE) 10:01:51 145.880/145.840
UNISAT 6 14 Dec 09:56:25 09:59:48 22° 268° (W) 10:03:11 437.425
Max Valier Satellite 14 Dec 09:57:03 10:00:47 70° 102° (ESE) 10:04:31 145.860
Oscar 11 14 Dec 09:57:52 10:01:28 26° 298° (WNW) 10:05:05 .
HO-68 14 Dec 10:00:53 10:05:40 20° 318° (NW) 10:10:26 435.675
DUCHIFAT 1 14 Dec 10:01:35 10:04:46 22° 61° (ENE) 10:07:58 145.980
AAUSAT CUBESAT 2 14 Dec 10:06:33 10:07:30 11° 307° (NW) 10:08:27 437.432
AO-73 14 Dec 10:12:08 10:14:35 15° 303° (WNW) 10:17:05 145.935
ESTCUBE 1 14 Dec 10:22:18 10:24:49 15° 87° (E) 10:27:20 437.505/2401.250
AO-7 14 Dec 10:24:06 10:27:15 13° 16° (NNE) 10:30:25 .
NANOSAT C BR1 14 Dec 10:26:44 10:30:37 39° 67° (ENE) 10:34:31 145.865
EO-88 14 Dec 10:26:51 10:30:33 79° 286° (WNW) 10:34:13 145.990 - 145.960
EO-79 14 Dec 10:41:17 10:45:25 60° 71° (ENE) 10:49:33 145.935-145.965
BUGSAT 1 14 Dec 10:45:39 10:48:14 17° 58° (ENE) 10:50:50 437.445
AIST 2D 14 Dec 10:48:27 10:51:45 39° 262° (W) 10:55:07 435.315
PRISM 14 Dec 10:48:46 10:51:48 19° 269° (W) 10:54:51 437.425
Oscar 19 14 Dec 10:53:57 10:57:25 19° 53° (NE) 11:00:55 437.125/150
LO-87 14 Dec 10:59:46 11:03:03 35° 97° (E) 11:06:19 145.935 - 145.965
AO-91 14 Dec 11:03:23 11:06:15 16° 59° (ENE) 11:08:58 145.960
POLYITAN 1 14 Dec 11:04:02 11:08:14 84° 259° (WSW) 11:12:27 437.675
SPROUT 14 Dec 11:10:07 11:10:54 10° 85° (E) 11:11:41 437.525
DELFI C3 14 Dec 11:13:16 11:15:57 18° 300° (WNW) 11:18:37 145.870
O/OREOS (USA 219) 14 Dec 11:26:08 11:28:11 13° 328° (NNW) 11:30:14 437.305
NO-84 14 Dec 11:28:00 11:31:31 66° 15° (NNE) 11:35:20 435.350 FM
Gurwin Techsat 1B 14 Dec 11:29:19 11:33:40 26° 58° (ENE) 11:38:00 435.225
QB50P2 14 Dec 11:29:59 11:34:00 43° 262° (W) 11:38:01 145.880/145.840
Max Valier Satellite 14 Dec 11:32:03 11:34:08 14° 301° (WNW) 11:36:13 145.860
DUCHIFAT 1 14 Dec 11:36:05 11:40:09 51° 260° (W) 11:44:14 145.980
ESTCUBE 1 14 Dec 11:57:39 12:02:14 84° 287° (WNW) 12:06:47 437.505/2401.250
VELOX 1 14 Dec 11:58:18 12:01:33 20° 91° (E) 12:04:47 145.980
EO-88 14 Dec 12:02:51 12:03:31 10° 305° (NW) 12:04:10 145.990 - 145.960
NANOSAT C BR1 14 Dec 12:02:54 12:06:26 26° 266° (W) 12:10:00 145.865
AO-7 14 Dec 12:10:40 12:17:18 28° 42° (NE) 12:23:58 .
YUBILEINY 14 Dec 12:14:46 12:22:10 28° 56° (NE) 12:29:29 435.215
nSIGHT-1 14 Dec 12:17:43 12:20:28 26° 150° (SSE) 12:23:14 .
EO-79 14 Dec 12:18:41 12:21:33 18° 270° (W) 12:24:26 145.935-145.965
BUGSAT 1 14 Dec 12:19:08 12:23:09 68° 257° (WSW) 12:27:11 437.445
Oscar 19 14 Dec 12:30:56 12:36:05 89° 74° (ENE) 12:41:18 437.125/150
LO-87 14 Dec 12:33:30 12:36:18 22° 296° (WNW) 12:39:06 145.935 - 145.965
AO-91 14 Dec 12:37:27 12:42:17 84° 253° (WSW) 12:46:39 145.960
SPROUT 14 Dec 12:43:15 12:47:31 79° 104° (ESE) 12:51:46 437.525
POLYITAN 1 14 Dec 12:43:35 12:44:42 11° 275° (W) 12:45:49 437.675
DX 1 14 Dec 12:56:11 12:59:08 18° 90° (E) 13:02:05 434.975-435.025
ISS 14 Dec 12:57:00 13:00:05 37° 155° (SSE) 13:03:10 437.550
NO-84 14 Dec 13:05:13 13:08:45 43° 214° (SW) 13:12:31 435.350 FM
Gurwin Techsat 1B 14 Dec 13:07:57 13:13:14 64° 258° (WSW) 13:18:34 435.225
M-CUBED/EXP-1 PRIME 14 Dec 13:25:40 13:29:50 40° 59° (ENE) 13:34:10 437.505
VELOX 1 14 Dec 13:34:00 13:38:23 58° 290° (WNW) 13:42:41 145.980
ESTCUBE 1 14 Dec 13:35:48 13:38:22 15° 306° (NW) 13:40:55 437.505/2401.250
ITAMSAT 1 14 Dec 13:42:27 13:47:03 33° 61° (ENE) 13:51:40 435.822/435.867
RS-15 14 Dec 13:49:20 14:00:00 37° 107° (ESE) 14:10:34 29.354- 29.394
MOZHAYETS 4 14 Dec 13:50:40 13:51:54 11° 84° (E) 13:53:08
nSIGHT-1 14 Dec 13:53:10 13:56:23 71° 169° (S) 13:59:36 .
50 SAT 14 Dec 13:54:53 13:58:03 66° 103° (ESE) 14:01:11 437.505
AO-7 14 Dec 14:00:42 14:09:00 80° 66° (ENE) 14:17:23 .
BEESAT 14 Dec 14:06:51 14:07:58 11° 84° (E) 14:09:05 436.000
YUBILEINY 14 Dec 14:11:21 14:20:17 89° 262° (W) 14:29:05 435.215
Oscar 19 14 Dec 14:13:00 14:16:08 16° 273° (W) 14:19:18 437.125/150
UKube-1 14 Dec 14:16:49 14:21:06 62° 102° (ESE) 14:25:22 .
AO-91 14 Dec 14:17:12 14:19:16 13° 272° (W) 14:21:16 145.960
SPROUT 14 Dec 14:20:16 14:22:53 16° 303° (WNW) 14:25:30 437.525
DX 1 14 Dec 14:31:26 14:35:46 65° 289° (WNW) 14:40:03 434.975-435.025
ITUPSAT 1 14 Dec 14:33:03 14:36:22 18° 89° (E) 14:39:41 437.325
ISS 14 Dec 14:33:05 14:36:23 81° 174° (S) 14:39:42 437.550
NO-84 14 Dec 14:45:11 14:45:20 10° 231° (SW) 14:45:30 435.350 FM
Gurwin Techsat 1B 14 Dec 14:52:49 14:54:16 11° 278° (W) 14:55:43 435.225
M-CUBED/EXP-1 PRIME 14 Dec 15:00:15 15:04:14 33° 259° (W) 15:08:24 437.505
DOVE 4 14 Dec 15:02:14 15:06:55 34° 64° (ENE) 15:11:27 437.250
CUTE-I 14 Dec 15:07:53 15:09:59 12° 46° (NE) 15:12:05 437.470
CUBESAT XI-V 14 Dec 15:11:01 15:14:14 18° 88° (E) 15:17:25 437.345
VELOX 1 14 Dec 15:12:53 15:13:55 11° 310° (NW) 15:14:57 145.980
HO-68 14 Dec 15:15:49 15:19:37 15° 37° (NE) 15:23:24 435.675
ITAMSAT 1 14 Dec 15:21:21 15:26:22 47° 260° (W) 15:31:26 435.822/435.867
MOZHAYETS 4 14 Dec 15:25:15 15:29:54 74° 104° (ESE) 15:34:31
50 SAT 14 Dec 15:28:26 15:29:31 11° 301° (WNW) 15:30:37 437.505
XW-2B 14 Dec 15:29:12 15:29:48 10° 54° (NE) 15:30:23 145.730 - 145.750
nSIGHT-1 14 Dec 15:29:19 15:32:33 76° 189° (S) 15:35:47 .
XW-2F 14 Dec 15:40:31 15:42:10 13° 57° (ENE) 15:43:49 145.980 - 146.000
SO-50 14 Dec 15:41:16 15:45:26 40° 123° (ESE) 15:49:41 436.795
BEESAT 14 Dec 15:41:51 15:46:38 70° 103° (ESE) 15:51:24 436.000
UKube-1 14 Dec 15:53:34 15:56:44 20° 302° (WNW) 15:59:53 .
XW-2C 14 Dec 15:54:17 15:56:52 18° 60° (ENE) 15:59:27 145.795 - 145.815
AO-7 14 Dec 15:55:35 16:02:38 30° 268° (W) 16:09:46 .
RS-15 14 Dec 15:58:58 16:11:23 87° 313° (NW) 16:23:35 29.354- 29.394
YUBILEINY 14 Dec 16:09:15 16:15:55 25° 284° (WNW) 16:22:34 435.215
ISS 14 Dec 16:09:33 16:12:50 64° 194° (SSW) 16:16:05 437.550
DX 1 14 Dec 16:09:40 16:11:07 12° 309° (NW) 16:12:34 434.975-435.025
ITUPSAT 1 14 Dec 16:09:56 16:14:42 71° 289° (WNW) 16:19:27 437.325
CUTE 1.7 + AOD 2 14 Dec 16:18:09 16:19:41 12° 53° (NE) 16:21:14 437.475
LilacSat-2 14 Dec 16:28:56 16:32:30 38° 68° (ENE) 16:36:06 437.200
O/OREOS (USA 219) 14 Dec 16:29:11 16:32:59 26° 45° (NE) 16:36:45 437.305
DOVE 4 14 Dec 16:39:27 16:44:29 44° 263° (W) 16:49:21 437.250
XW-2D 14 Dec 16:43:41 16:47:22 51° 71° (ENE) 16:51:07 145.860 - 145.880
CUTE-I 14 Dec 16:43:43 16:48:55 52° 67° (ENE) 16:54:07 437.470
CUBESAT XI-V 14 Dec 16:47:24 16:52:07 72° 288° (WNW) 16:56:49 437.345
NUDT-PHONESAT 14 Dec 16:50:09 16:53:38 40° 69° (ENE) 16:57:10 437.300
KAITUO 1B 14 Dec 16:53:03 16:56:39 46° 70° (ENE) 17:00:18 145.475/437.950
HO-68 14 Dec 16:58:56 17:05:43 47° 60° (ENE) 17:12:31 435.675
XW-2B 14 Dec 16:59:28 17:03:14 73° 74° (ENE) 17:07:04 145.730 - 145.750
CUBEBUG 2 14 Dec 17:00:30 17:03:11 17° 58° (ENE) 17:05:53 437.445
UWE-3 14 Dec 17:02:36 17:03:54 11° 53° (NE) 17:05:12 435.000/436.395/437.385
MOZHAYETS 4 14 Dec 17:03:19 17:06:34 19° 303° (WNW) 17:09:49
nSIGHT-1 14 Dec 17:05:38 17:08:31 30° 208° (SSW) 17:11:23 .
XW-2F 14 Dec 17:11:54 17:15:40 88° 256° (WSW) 17:19:31 145.980 - 146.000
KKS-1 14 Dec 17:17:57 17:22:18 52° 100° (E) 17:26:37 437.445
BEESAT 14 Dec 17:20:26 17:23:58 21° 303° (WNW) 17:27:30 436.000
SO-50 14 Dec 17:21:37 17:25:55 43° 324° (NW) 17:30:18 436.795
XW-2C 14 Dec 17:26:55 17:30:39 56° 259° (W) 17:34:27 145.795 - 145.815
ZACube-1 14 Dec 17:28:27 17:29:46 11° 53° (NE) 17:31:06 437.345
SEEDS 14 Dec 17:28:54 17:32:35 30° 65° (ENE) 17:36:18 437.485
XW-2A 14 Dec 17:32:40 17:34:12 13° 59° (ENE) 17:35:45 145.665 - 145.685
ISS 14 Dec 17:46:20 17:48:56 22° 214° (SSW) 17:51:32 437.550
Oscar 11 14 Dec 17:48:27 17:50:04 12° 53° (NE) 17:51:42 .
ITUPSAT 1 14 Dec 17:49:18 17:51:43 14° 309° (NW) 17:54:10 437.325
AAUSAT CUBESAT 2 14 Dec 17:49:20 17:52:39 23° 62° (ENE) 17:55:58 437.432
CUTE 1.7 + AOD 2 14 Dec 17:50:30 17:54:44 70° 74° (ENE) 17:59:01 437.475
AO-73 14 Dec 18:00:44 18:03:38 19° 59° (ENE) 18:06:34 145.935
STARS 14 Dec 18:01:58 18:06:18 59° 102° (ESE) 18:10:36 437.465
LilacSat-2 14 Dec 18:03:48 18:06:54 23° 267° (W) 18:10:03 437.200
O/OREOS (USA 219) 14 Dec 18:08:17 18:12:45 58° 247° (WSW) 18:17:09 437.305
RS-15 14 Dec 18:13:37 18:25:30 50° 343° (NNW) 18:37:00 29.354- 29.394
XW-2D 14 Dec 18:19:16 18:21:51 17° 270° (W) 18:24:27 145.860 - 145.880
CUTE-I 14 Dec 18:24:33 18:29:14 30° 266° (W) 18:33:55 437.470
NUDT-PHONESAT 14 Dec 18:24:50 18:27:39 20° 268° (W) 18:30:30 437.300
CUBESAT XI-V 14 Dec 18:26:20 18:28:41 14° 308° (NW) 18:31:03 437.345
KAITUO 1B 14 Dec 18:28:10 18:30:52 19° 269° (W) 18:33:36 145.475/437.950
CUBEBUG 2 14 Dec 18:35:11 18:39:22 70° 258° (WSW) 18:43:32 437.445
UWE-3 14 Dec 18:35:29 18:39:36 72° 73° (ENE) 18:43:46 435.000/436.395/437.385
XW-2B 14 Dec 18:36:10 18:37:54 13° 273° (W) 18:39:39 145.730 - 145.750
STRAND 1 14 Dec 18:39:12 18:43:14 23° 91° (E) 18:47:14 437.568
PCSat 14 Dec 18:46:21 18:51:29 45° 117° (ESE) 18:56:38 145.827
HO-68 14 Dec 18:46:33 18:53:28 48° 261° (W) 19:00:26 435.675
KKS-1 14 Dec 18:55:01 18:58:35 24° 300° (WNW) 19:02:08 437.445
DELFI C3 14 Dec 18:56:23 18:57:37 11° 54° (NE) 18:58:49 145.870
ZACube-1 14 Dec 19:01:11 19:05:17 71° 74° (ENE) 19:09:28 437.345
XW-2A 14 Dec 19:03:06 19:06:26 67° 258° (WSW) 19:09:49 145.665 - 145.685
SO-50 14 Dec 19:04:09 19:07:28 19° 347° (NNW) 19:10:48 436.795
SEEDS 14 Dec 19:04:15 19:08:11 36° 264° (W) 19:12:10 437.485
Oscar 11 14 Dec 19:21:08 19:25:25 70° 73° (ENE) 19:29:46 .
AAUSAT CUBESAT 2 14 Dec 19:23:47 19:27:51 48° 261° (W) 19:31:56 437.432
CUTE 1.7 + AOD 2 14 Dec 19:28:26 19:31:03 16° 272° (W) 19:33:42 437.475
AO-73 14 Dec 19:35:25 19:39:29 60° 259° (WSW) 19:43:38 145.935
EO-88 14 Dec 19:38:05 19:39:45 13° 57° (ENE) 19:41:25 145.990 - 145.960
STARS 14 Dec 19:39:00 19:42:17 21° 301° (WNW) 19:45:33 437.465
FO-29 14 Dec 20:00:52 20:07:39 43° 94° (E) 20:13:40 435.910
UWE-3 14 Dec 20:14:16 20:16:35 14° 272° (W) 20:18:55 435.000/436.395/437.385
STRAND 1 14 Dec 20:17:47 20:22:50 62° 291° (WNW) 20:27:52 437.568
BEESAT 3 14 Dec 20:26:07 20:29:56 45° 124° (SE) 20:33:47 437.485
DELFI C3 14 Dec 20:27:39 20:31:38 74° 74° (ENE) 20:35:38 145.870
RS-15 14 Dec 20:29:15 20:41:00 49° 16° (NNE) 20:52:10 29.354- 29.394
PCSat 14 Dec 20:29:44 20:34:55 45° 319° (NW) 20:40:09 145.827
ZACube-1 14 Dec 20:39:46 20:42:06 15° 272° (W) 20:44:27 437.345
Max Valier Satellite 14 Dec 20:40:42 20:44:20 71° 73° (ENE) 20:48:02 145.860
SO-50 14 Dec 20:46:09 20:49:29 19° 12° (NNE) 20:52:50 436.795
Oscar 11 14 Dec 20:59:20 21:02:03 16° 272° (W) 21:04:47 .
BEESAT 2 14 Dec 21:05:41 21:09:23 35° 122° (ESE) 21:13:07 435.950
EO-88 14 Dec 21:09:12 21:12:50 79° 256° (WSW) 21:16:32 145.990 - 145.960
ESTCUBE 1 14 Dec 21:26:34 21:30:21 27° 61° (ENE) 21:34:08 437.505/2401.250
TIGRISAT 14 Dec 21:37:30 21:41:36 42° 98° (E) 21:45:47 435.000
UNISAT 6 14 Dec 21:40:41 21:44:54 48° 100° (E) 21:49:09 437.425
LO-87 14 Dec 21:40:43 21:43:56 34° 68° (ENE) 21:47:11 145.935 - 145.965
FO-29 14 Dec 21:45:56 21:52:49 48° 298° (WNW) 21:58:56 435.910
STRAND 1 14 Dec 21:58:40 22:01:05 14° 311° (NW) 22:03:30 437.568
BEESAT 3 14 Dec 22:03:55 22:07:35 34° 325° (NW) 22:11:17 437.485
DELFI C3 14 Dec 22:04:49 22:06:52 14° 273° (W) 22:08:55 145.870
SPROUT 14 Dec 22:07:27 22:10:20 18° 58° (ENE) 22:13:14 437.525
AIST 2D 14 Dec 22:09:02 22:10:13 11° 87° (E) 22:11:24 435.315
PCSat 14 Dec 22:15:47 22:19:41 20° 344° (NNW) 22:23:37 145.827
Max Valier Satellite 14 Dec 22:17:05 22:18:38 12° 273° (W) 22:20:10 145.860
PRISM 14 Dec 22:22:49 22:26:42 39° 98° (E) 22:30:32 437.425
SO-50 14 Dec 22:26:40 22:31:03 41° 35° (NE) 22:35:30 436.795
AO-85 14 Dec 22:34:00 22:37:56 64° 128° (SE) 22:42:08 145.980
RS-15 14 Dec 22:43:01 22:55:07 85° 47° (NE) 23:06:31 29.354- 29.394
BEESAT 2 14 Dec 22:43:13 22:47:04 41° 322° (NW) 22:50:58 435.950
POLYITAN 1 14 Dec 22:45:08 22:46:21 11° 85° (E) 22:47:34 437.675
VELOX 1 14 Dec 23:00:20 23:04:23 35° 65° (ENE) 23:08:27 145.980
ESTCUBE 1 14 Dec 23:02:34 23:06:55 47° 261° (W) 23:11:21 437.505/2401.250
QB50P2 14 Dec 23:09:14 23:12:28 21° 92° (E) 23:15:40 145.880/145.840
TIGRISAT 14 Dec 23:14:32 23:18:10 27° 297° (WNW) 23:21:51 435.000
LO-87 14 Dec 23:14:37 23:17:26 22° 266° (W) 23:20:15 145.935 - 145.965
DUCHIFAT 1 14 Dec 23:14:51 23:17:37 17° 90° (E) 23:20:23 145.980
UNISAT 6 14 Dec 23:17:54 23:21:23 24° 298° (WNW) 23:24:54 437.425
FO-29 14 Dec 23:32:20 23:36:07 15° 321° (NW) 23:39:44 435.910
AIST 2D 14 Dec 23:40:17 23:43:51 72° 286° (WNW) 23:47:23 435.315
NANOSAT C BR1 14 Dec 23:40:32 23:44:21 32° 96° (E) 23:48:08 145.865
SPROUT 14 Dec 23:41:34 23:45:47 68° 258° (WSW) 23:50:02 437.525
UKube-1 14 Dec 23:42:14 23:45:05 17° 56° (ENE) 23:47:55 .
BEESAT 3 14 Dec 23:43:51 23:46:12 15° 348° (NNW) 23:48:34 437.485
